Afshar-e Bala, Afghanistan

7:24 AM AFT on February 22, 2017 (GMT +0430)
Kabul

Weather History for OAKB - January, 2013

Change the Weather History Date:

Friday, January 18, 2013

  Actual Average Record
Temperature  
Mean Temperature 28 °F -  
Max Temperature 39 °F 41 °F - ()
Min Temperature 17 °F 21 °F - ()
Degree Days  
Heating Degree Days 37    
Moisture  
Dew Point 11 °F    
Average Humidity 57    
Maximum Humidity 100    
Minimum Humidity 24    
Precipitation  
Precipitation 0.00 in 0.07 in - ()
Sea Level Pressure  
Sea Level Pressure 30.05 in    
Wind  
Wind Speed 5 mph ()    
Max Wind Speed 14 mph    
Max Gust Speed -    
Visibility 3.9 miles    
Events      
T = Trace of Precipitation, MM = Missing Value Source: Averaged Metar Reports

Daily Weather History Graph

Daily Weather History Graph

Search for Another Location

Airport or City:

Trip Planner

Search our weather history database for the weather conditions in past years. The results will help you decide how hot, cold, wet, or windy it might be!

Date:

Astronomy

Jan. 18, 2013 Rise Set
Actual Time 6:58 AM AFT 5:08 PM AFT
Civil Twilight 6:31 AM AFT 5:35 PM AFT
Nautical Twilight 6:00 AM AFT 6:06 PM AFT
Astronomical Twilight 5:30 AM AFT 6:36 PM AFT
Moon 10:42 AM AFT (1/18) 12:11 AM AFT (1/19)
Length of Visible Light 11h 04m
Length of Day
10h 09m
Waxing Crescent, 43% of the Moon is Illuminated
Jan 18
Waxing Crescent
Jan 19
First Quarter
Jan 27
Full
Feb 3
Last Quarter
Feb 10
New

Hourly Weather History & Observations

Time (AFT) Temp. Windchill Dew Point Humidity Pressure Visibility Wind Dir Wind Speed Gust Speed Precip Events Conditions
12:20 AM 19.4 °F 12.8 °F 17.6 °F 93% 30.06 in 3.1 mi NE 4.6 mph - N/A   Mist
12:50 AM 17.6 °F 8.2 °F 17.6 °F 100% 30.06 in 4.3 mi ENE 6.9 mph - N/A   Unknown
1:20 AM 19.4 °F 12.8 °F 17.6 °F 93% 30.06 in - NW 4.6 mph - N/A   Clear
2:20 AM 17.6 °F 9.3 °F 15.8 °F 93% 30.06 in - NW 5.8 mph - N/A   Clear
3:20 AM 19.4 °F 11.5 °F 15.8 °F 86% 30.04 in - East 5.8 mph - N/A   Clear
4:20 AM 19.4 °F 12.8 °F 17.6 °F 93% 30.04 in - SE 4.6 mph - N/A   Clear
5:20 AM 19.4 °F 11.5 °F 12.2 °F 74% 30.06 in - NNW 5.8 mph - N/A   Clear
6:20 AM 19.4 °F 10.4 °F 10.4 °F 68% 30.06 in - NNW 6.9 mph - N/A   Clear
7:20 AM 19.4 °F 12.8 °F 10.4 °F 68% 30.06 in - NNW 4.6 mph - N/A   Clear
8:20 AM 23.0 °F 15.8 °F 10.4 °F 59% 30.09 in - NW 5.8 mph - N/A   Clear
9:20 AM 32.0 °F 27.5 °F 10.4 °F 41% 30.09 in - West 4.6 mph - N/A   Clear
9:30 AM - - - N/A% - - North - - N/A   Volcanic Ash
10:20 AM 30.2 °F 21.9 °F 6.8 °F 37% 30.09 in - South 9.2 mph - N/A   Clear
11:20 AM 30.2 °F 22.6 °F 8.6 °F 40% 30.09 in - South 8.1 mph - N/A   Clear
12:20 PM 32.0 °F 22.1 °F 6.8 °F 35% 30.06 in - South 13.8 mph - N/A   Clear
1:20 PM 33.8 °F 25.3 °F 5.0 °F 30% 30.04 in - South 11.5 mph - N/A   Clear
2:20 PM 39.2 °F 35.9 °F 5.0 °F 24% 30.01 in - SW 4.6 mph - N/A   Clear
3:20 PM 39.2 °F 35.9 °F 5.0 °F 24% 30.01 in - SW 4.6 mph - N/A   Clear
4:20 PM 35.6 °F 32.8 °F 5.0 °F 28% 30.01 in - SW 3.5 mph - N/A   Clear
5:20 PM 32.0 °F 28.7 °F 10.4 °F 41% 30.01 in - East 3.5 mph - N/A   Clear
6:20 PM 30.2 °F 25.4 °F 10.4 °F 44% 30.01 in - North 4.6 mph - N/A   Clear
7:20 PM 28.4 °F 24.6 °F 8.6 °F 43% 30.04 in - North 3.5 mph - N/A   Clear
8:20 PM 28.4 °F 22.2 °F 12.2 °F 51% 30.06 in 3.7 mi NNE 5.8 mph - N/A   Unknown
9:20 PM 26.6 °F 20.0 °F 12.2 °F 55% 30.06 in 3.7 mi NE 5.8 mph - N/A   Unknown
10:20 PM 21.2 °F 13.6 °F - N/A% 30.09 in 4.3 mi North 5.8 mph - N/A   Unknown
11:20 PM 24.8 °F 19.1 °F 10.4 °F 54% 30.09 in 4.3 mi North 4.6 mph - N/A   Unknown